Weather History for KVLD - December, 2012

Change the Weather History Date:

Tuesday, December 11, 2012

  Actual Average Record
Temperature  
Mean Temperature 65 °F 54 °F  
Max Temperature 72 °F 66 °F 80 °F (2007)
Min Temperature 57 °F 42 °F 32 °F (2014)
Degree Days  
Heating Degree Days 0 12  
Month to date heating degree days 5 117  
Since 1 July heating degree days 218 348  
Growing Degree Days 14 (Base 50)    
Moisture  
Dew Point 59 °F    
Average Humidity 80    
Maximum Humidity 87    
Minimum Humidity 73    
Precipitation  
Precipitation 0.02 in 0.12 in 0.54 in (2008)
Month to date precipitation 0.04 1.21  
Year to date precipitation 40.06 48.64  
Sea Level Pressure  
Sea Level Pressure 29.98 in    
Wind  
Wind Speed 3 mph (North)    
Max Wind Speed 15 mph    
Max Gust Speed 17 mph    
Visibility 9 miles    
Events Rain    
T = Trace of Precipitation, MM = Missing Value Source: NWS Daily Summary

Daily Weather History Graph

Daily Weather History Graph

Search for Another Location

Airport or City:

Trip Planner

Search our weather history database for the weather conditions in past years. The results will help you decide how hot, cold, wet, or windy it might be!

Date:

Astronomy

Dec. 11, 2012 Rise Set
Actual Time 7:20 AM EST 5:32 PM EST
Civil Twilight 6:54 AM EST 5:58 PM EST
Nautical Twilight 6:24 AM EST 6:28 PM EST
Astronomical Twilight 5:54 AM EST 6:58 PM EST
Moon 5:18 AM EST (12/11) 4:07 PM EST (12/11)
Length of Visible Light 11h 04m
Length of Day
10h 11m
Waning Crescent, 4% of the Moon is Illuminated
Dec 11
Waning Crescent
Dec 13
New
Dec 20
First Quarter
Dec 28
Full
Jan 4
Last Quarter

Hourly Weather History & Observations

Time (EST) Temp. Dew Point Humidity Pressure Visibility Wind Dir Wind Speed Gust Speed Precip Events Conditions
12:53 AM 71.1 °F 66.0 °F 84% 29.87 in 10.0 mi SSW 3.5 mph - N/A   Overcast
1:53 AM 71.1 °F 66.0 °F 84% 29.86 in 9.0 mi Calm Calm - N/A   Overcast
2:53 AM 71.1 °F 66.0 °F 84% 29.86 in 10.0 mi Calm Calm - N/A   Mostly Cloudy
3:04 AM 69.8 °F 66.2 °F 88% 29.84 in 10.0 mi Calm Calm - N/A   Partly Cloudy
3:32 AM 69.8 °F 64.4 °F 83% 29.85 in 7.0 mi Calm Calm - N/A   Mostly Cloudy
3:53 AM 69.1 °F 64.9 °F 87% 29.87 in 8.0 mi Calm Calm - N/A   Mostly Cloudy
4:53 AM 68.0 °F 64.0 °F 87% 29.88 in 10.0 mi Calm Calm - N/A   Mostly Cloudy
5:50 AM 69.8 °F 64.4 °F 83% 29.88 in 10.0 mi Calm Calm - N/A   Overcast
5:53 AM 69.1 °F 64.9 °F 87% 29.91 in 10.0 mi Calm Calm - N/A   Overcast
6:15 AM 69.8 °F 64.4 °F 83% 29.89 in 10.0 mi Calm Calm - N/A   Overcast
6:48 AM 68.0 °F 64.4 °F 88% 29.90 in 10.0 mi Calm Calm - N/A   Mostly Cloudy
6:53 AM 68.0 °F 64.0 °F 87% 29.93 in 10.0 mi Calm Calm - N/A   Mostly Cloudy
7:53 AM 68.0 °F 64.0 °F 87% 29.95 in 8.0 mi Calm Calm - N/A   Mostly Cloudy
8:03 AM 69.8 °F 64.4 °F 83% 29.93 in 10.0 mi Calm Calm - N/A   Mostly Cloudy
8:53 AM 70.0 °F 64.0 °F 81% 29.97 in 10.0 mi Calm Calm - N/A   Mostly Cloudy
9:46 AM 71.6 °F 62.6 °F 73% 29.97 in 10.0 mi Calm Calm - N/A   Mostly Cloudy
9:53 AM 71.1 °F 62.1 °F 73% 30.00 in 10.0 mi NW 3.5 mph - N/A   Mostly Cloudy
9:55 AM 71.6 °F 62.6 °F 73% 29.97 in 10.0 mi NW 3.5 mph - N/A   Mostly Cloudy
10:53 AM 70.0 °F 62.1 °F 76% 30.01 in 10.0 mi Variable 4.6 mph - N/A   Mostly Cloudy
11:00 AM 69.8 °F 60.8 °F 73% 29.99 in 9.0 mi Variable 4.6 mph - N/A   Overcast
11:07 AM 68.0 °F 60.8 °F 78% 29.99 in 9.0 mi Variable 4.6 mph - N/A   Overcast
11:25 AM 66.2 °F 60.8 °F 83% 29.98 in 9.0 mi Calm Calm - N/A   Overcast
12:53 PM 66.0 °F 59.0 °F 78% 30.01 in 10.0 mi Variable 3.5 mph - N/A   Overcast
1:53 PM 64.0 °F 57.0 °F 78% 30.00 in 10.0 mi Variable 5.8 mph - N/A   Overcast
2:05 PM 62.6 °F 57.2 °F 82% 29.98 in 10.0 mi Variable 4.6 mph - 0.00 in Rain Light Rain
2:53 PM 62.1 °F 57.9 °F 86% 30.01 in 7.0 mi Variable 3.5 mph - 0.01 in Rain Light Rain
3:53 PM 61.0 °F 55.9 °F 83% 30.01 in 5.0 mi Variable 3.5 mph - 0.01 in   Haze
4:53 PM 61.0 °F 55.9 °F 83% 30.03 in 6.0 mi Calm Calm - 0.00 in Rain Light Rain
5:53 PM 60.1 °F 55.0 °F 83% 30.04 in 10.0 mi Variable 3.5 mph - 0.00 in Rain Light Rain
6:08 PM 59.0 °F 55.4 °F 88% 30.01 in 10.0 mi North 3.5 mph - 0.00 in Rain Light Rain
6:37 PM 59.0 °F 53.6 °F 82% 30.02 in 10.0 mi NNE 3.5 mph - 0.00 in   Mostly Cloudy
6:45 PM 59.0 °F 53.6 °F 82% 30.03 in 10.0 mi North 4.6 mph - 0.00 in   Mostly Cloudy
6:53 PM 59.0 °F 54.0 °F 83% 30.05 in 10.0 mi ENE 3.5 mph - 0.00 in   Mostly Cloudy
7:00 PM 59.0 °F 55.4 °F 88% 30.03 in 10.0 mi NNE 3.5 mph - N/A   Overcast
7:48 PM 59.0 °F 55.4 °F 88% 30.04 in 10.0 mi NE 3.5 mph - N/A   Overcast
7:53 PM 59.0 °F 54.0 °F 83% 30.07 in 10.0 mi North 4.6 mph - N/A   Overcast
8:53 PM 59.0 °F 54.0 °F 83% 30.06 in 10.0 mi NNE 4.6 mph - N/A   Mostly Cloudy
9:53 PM 59.0 °F 53.1 °F 81% 30.09 in 10.0 mi North 10.4 mph - N/A   Mostly Cloudy
10:00 PM 57.2 °F 53.6 °F 88% 30.07 in 10.0 mi North 10.4 mph - N/A   Overcast
10:11 PM 57.2 °F 51.8 °F 82% 30.07 in 9.0 mi North 13.8 mph - N/A   Overcast
10:53 PM 57.0 °F 50.0 °F 77% 30.12 in 10.0 mi North 6.9 mph - N/A   Overcast
11:00 PM 57.2 °F 50.0 °F 77% 30.10 in 10.0 mi North 5.8 mph - N/A   Overcast
11:53 PM 57.0 °F 48.9 °F 74% 30.13 in 10.0 mi NE 5.8 mph - N/A   Overcast